sat.trackr.live / text

‹ back to catalog

NIMIQ 6

NORAD 38342 · 2012-026A

PAYLOAD ACTIVE UNKNOWN

§ Identity

Operator
Country
CA
Launch date
2012-05-17
Launch site
TYMSC
Launch vehicle
Mass (kg)
RCS (m²)
14.09

Purposes: comms

External: N2YO · Heavens-Above · Gunter

§ Orbital elements

Epoch: 2026-09-20T04:02:18.789792Z

Period
1,436.10 min
Inclination
0.0153°
Eccentricity
0.0002876
Mean motion
1.00271594 rev/d
Perigee alt
35,774.5 km
Apogee alt
35,798.8 km
Semi-major
42,164.8 km
B*
0.0000e+0
RAAN
213.9818°
Arg perigee
322.5515°
Mean anomaly
152.0210°
Rev number
5,137

§ Raw data

NIMIQ 61 38342U 12026A   26263.16827303 -.00000178  00000+0  00000+0 0  99952 38342   0.0153 213.9818 0002876 322.5515 152.0210  1.00271594 51375

JSON: /api/v1/satellites/38342 · /tle

For live sub-satellite position, see the globe view (requires WebGL).

§ Visibility from observer

Set your observer location to see the next 7 days of passes ≥ 10°. The values pass through the URL so the page stays shareable.

No JS? Fill the form by hand. The geolocation button needs JavaScript.